Regional Weather Roundup
Issued by NWS Little Rock, AR

Home | Current Version | Previous Version | Text Only | Print | Product List | Glossary Off
Versions: 1 2 3 4 5 6 7 8 9 10 11 12 13 14 15 16 17 18 19 20 21 22 23 24 25 26 27 28 29 30 31 32 33 34 35 36 37 38 39 40 41 42 43 44 45 46 47 48 49 50

000
ASUS44 KLZK 250705
RWRLZK

WEATHER ROUNDUP FOR ARKANSAS
NATIONAL WEATHER SERVICE LITTLE ROCK AR
100 AM CST SUN JAN 25 2015

NOTE: "FAIR" INDICATES FEW OR NO CLOUDS BELOW 12,000 FEET WITH NO
SIGNIFICANT WEATHER AND/OR OBSTRUCTIONS TO VISIBILITY.

ARZ001-003-010-029-250800-
NORTHWEST ARKANSAS

CITY           SKY/WX    TMP DP  RH WIND       PRES   REMARKS
FAYETTEVILLE   CLOUDY    49  33  54 SW12      29.82F
FORT SMITH     MOCLDY    39  32  76 CALM      29.85F
HARRISON       CLOUDY    52  32  46 W12G21    29.76F
BENTONVILLE    CLOUDY    46  32  57 SW12      29.80F
ROGERS         CLOUDY    48  33  56 SW17G24   29.78F
SILOAM SPGS    CLOUDY    48  30  49 SW14G22   29.81F
HIGHFILL       CLOUDY    48  33  56 SW15      29.78F
$$

ARZ004-005-016-250800-
NORTH CENTRAL ARKANSAS

CITY           SKY/WX    TMP DP  RH WIND       PRES   REMARKS
BATESVILLE     PTCLDY    46  34  61 SW12      29.82F
FLIPPIN        CLOUDY    48  30  49 SW8       29.77F
MTN HOME       CLOUDY    45  32  60 S6        29.77F
$$

ARZ040-041-250800-
WEST CENTRAL ARKANSAS

CITY           SKY/WX    TMP DP  RH WIND       PRES   REMARKS
MENA           CLEAR     50  36  57 SW9       29.89F
MOUNT IDA      CLEAR     42  33  70 CALM      29.86F
$$

ARZ009-017-025-026-028-250800-
NORTHEAST ARKANSAS

CITY           SKY/WX    TMP DP  RH WIND       PRES   REMARKS
JONESBORO      PTCLDY    41  33  73 SW7       29.84F
NEWPORT        CLEAR     37  33  85 S14       29.85F
WALNUT RIDGE   MOCLDY    37  30  75 S9        29.82F
BLYTHEVILLE    PTCLDY    41  34  76 SW12      29.84F
$$

ARZ022-023-033-042-044-250800-
CENTRAL ARKANSAS

CITY           SKY/WX    TMP DP  RH WIND       PRES   REMARKS
LITTLE ROCK    PTCLDY    42  32  67 CALM      29.90F
N LITTLE ROCK    N/A     44  36  74 SW7       29.90F
JACKSONVILLE   CLEAR     32  28  85 CALM      29.87F
SEARCY         CLEAR     40  31  70 CALM      29.87F
HOT SPRINGS    CLEAR     39  33  79 CALM      29.90F
RUSSELLVILLE   PTCLDY    34  30  85 CALM      29.85F
CLINTON        FAIR      32  30  93 CALM      29.86F
$$

ARZ036-250800-
EAST ARKANSAS

CITY           SKY/WX    TMP DP  RH WIND       PRES   REMARKS
WEST MEMPHIS   CLEAR     42  34  73 S9        29.88S
$$

ARZ050-053-066-070-073-250800-
SOUTHWEST ARKANSAS

CITY           SKY/WX    TMP DP  RH WIND       PRES   REMARKS
ARKADELPHIA    FAIR      34  34 100 CALM      29.93F
CAMDEN         CLEAR     41  32  70 MISG      29.96F
TEXARKANA      CLEAR     41  35  79 SW8       29.95F
EL DORADO      CLEAR     40  34  79 SW3       29.97F
DE QUEEN       CLEAR     30  29  96 CALM      29.93F FOG
$$

ARZ056-057-069-250800-
SOUTHEAST ARKANSAS

CITY           SKY/WX    TMP DP  RH WIND       PRES   REMARKS
PINE BLUFF     CLEAR     41  33  73 SW7       29.93F
STUTTGART      CLEAR     37  30  75 SW9       29.92S
MONTICELLO     CLEAR     44  33  65 W8        29.94F

$$





USA.gov is the U.S. government's official web portal to all federal, state and local government web resources and services.